User: anonymous   Login
Location: Robert Brownlee Observatory
(34.2308°N, 117.2089°W)
Time: 08:02:18
(UTC-08:00)
Language:

Cosmos 1943 - Orbit

View from above orbital plane
View from above orbital plane
View from above satellite
View from above satellite

Ground track
Ground track

The orbit data is extracted from the following two-line orbital elements,

1 19119U 88039A   15064.18425263  .00000041  00000-0  45839-4 0  9994
2 19119 071.0023 055.1762 0013796 250.8343 189.6375 14.14993791383970
Epoch (UTC): 05 March 2015 04:25:19
Eccentricity: 0.0013796
inclination: 71.0023°
perigee height: 832 km
apogee height: 852 km
right ascension of ascending node: 55.1762°
argument of perigee: 250.8343°
revolutions per day: 14.14993791
mean anomaly at epoch: 189.6375°
orbit number at epoch: 38397

The dashed part of the orbit path shows where the satellite is in the earth's shadow,  

DLR